Starlink 32587

operational
NORAD ID: 62180 Int'l Des: 2024-225 Owner: SPXS Country: US Constellation: starlink
LEOCIRCULAR

关于 Starlink 32587

正在加载描述...

实时位置

正在加载3D地球...

即将过境

高度历史

Altitude vs Time

uPlot chart will show altitude changes over time

两行轨道根数

1 62180U 24225T 25256.68395105 .00004383 00000-0 37479-3 0 9990
2 62180 70.0000 250.5643 0003136 269.6220 90.4580 14.98337062 43366
Epoch: Sep 13, 2025 • Age: 43 hours

当前状态

高度 593.8 km
速度 7.56 km/s
星下点 -63.90°S, 33.46°E
发射日期 Nov 30, 2024
运行时间 0.7 years
类型 internet

技术详情

分类 Payload
质量 730.00 kg
干质量 700.00 kg
总质量 730.00 kg
长度 0.30 m
直径 4.10 m
跨度 29.00 m
形状 Box + pan
制造商 SPXS
平台类型 Starlink V2M
阶段状态 In Orbit
所有者/国家 SPXS/US

大型星座

Loading constellations...